This is the latest recevied weather packets stored in our database for station/object KD7CTY. If no packets are shown the sender has not sent any weather packets the latest 10 day(s).
| Time | Temp. | Humidity | Pressure | Rain* | Wind** | Luminosity | Snow |
|---|---|---|---|---|---|---|---|
| 1777901140 | 12.78° C | 76% | 1008.8 hPa | 0 mm | - | 21 W/m² | - |
| 1777900838 | 12.78° C | 77% | 1009 hPa | 0 mm | - | 17 W/m² | - |
| 1777900535 | 12.78° C | 77% | 1008.8 hPa | 0 mm | - | 14 W/m² | - |
| 1777900232 | 12.22° C | 82% | 1008.8 hPa | 0 mm | - | 11 W/m² | - |
| 1777899928 | 12.78° C | 81% | 1009 hPa | 0 mm | - | 8 W/m² | - |
| 1777899625 | 12.78° C | 79% | 1009.1 hPa | 0 mm | - | 4 W/m² | - |
| 1777899322 | 12.78° C | 76% | 1008.7 hPa | 0 mm | - | 2 W/m² | - |
| 1777899020 | 12.78° C | 73% | 1008.8 hPa | 0 mm | - | 1 W/m² | - |
| 1777898717 | 12.78° C | 74% | 1008.5 hPa | 0 mm | - | 0 W/m² | - |
| 1777898415 | 12.78° C | 75% | 1008.6 hPa | 0 mm | - | 0 W/m² | - |
| 1777898112 | 12.78° C | 75% | 1008.7 hPa | 0 mm | - | 0 W/m² | - |
| 1777897809 | 12.78° C | 75% | 1008.7 hPa | 0 mm | - | 0 W/m² | - |
| 1777897504 | 12.78° C | 73% | 1008.8 hPa | 0 mm | - | 0 W/m² | - |
| 1777897200 | 13.33° C | 71% | 1008.7 hPa | 0 mm | - | 0 W/m² | - |
| 1777896896 | 13.33° C | 71% | 1008.6 hPa | 0 mm | - | 0 W/m² | - |
| 1777896594 | 13.33° C | 70% | 1008.7 hPa | 0 mm | - | 0 W/m² | - |
| 1777896290 | 13.33° C | 72% | 1008.7 hPa | 0 mm | - | 0 W/m² | - |
| 1777895989 | 13.33° C | 73% | 1008.7 hPa | 0 mm | - | 0 W/m² | - |
| 1777895687 | 13.33° C | 73% | 1009 hPa | 0 mm | - | 0 W/m² | - |
| 1777895383 | 13.33° C | 73% | 1008.7 hPa | 0 mm | - | 0 W/m² | - |
| 1777895081 | 13.33° C | 73% | 1008.6 hPa | 0 mm | - | 0 W/m² | - |
| 1777894778 | 13.33° C | 73% | 1008.5 hPa | 0 mm | - | 0 W/m² | - |
| 1777894474 | 12.78° C | 74% | 1008.7 hPa | 0 mm | - | 0 W/m² | - |
| 1777894172 | 13.33° C | 74% | 1008.5 hPa | 0 mm | - | 0 W/m² | - |
| 1777893869 | 13.33° C | 73% | 1008.6 hPa | 0 mm | - | 0 W/m² | - |
* Rain latest hour (hover to see other rain measurements)
** Current wind speed in m/s (hover to see current wind gust speed)